This demonstration page uses our WeatherBlox Daily Observations layout. Learn more.

Left ArrowRight Arrow

Hourly Observations for October 21, 2021

Temp ( °F °C ) Dew Point ( °F °C ) Humidity (%) Winds ( mph kmh ) Pressure ( in mb ) Visibility ( mi km ) Precip ( " mm )
12:53 am 00:53 Clear 37 2.8 32 0 82 82 NW 9 15 30.19 1022 10 16 0.00 0.00
1:53 am 01:53 Clear 36 2.2 31 -0.6 82 82 WNW 8 13 30.19 1022 10 16 0.00 0.00
2:53 am 02:53 Clear 35 1.7 31 -0.6 85 85 WNW 9 15 30.19 1022 10 16 0.00 0.00
3:16 am 03:16 Mostly Cloudy 35 1.7 31 -0.6 85 85 WNW 8 13 30.25 1024 10 16 0.00 0.00
3:53 am 03:53 Cloudy 37 2.8 32 0 82 82 WNW 12 19 30.20 1023 10 16 0.00 0.00
4:53 am 04:53 Cloudy 38 3.3 33 0.6 83 83 WNW 13 20 30.22 1023 10 16 0.00 0.00
5:53 am 05:53 Mostly Cloudy 37 2.8 33 0.6 86 86 NW 10 17 30.23 1024 10 16 0.00 0.00
6:00 am 06:00 Partly Cloudy 37 2.8 32 0 82 82 NW 10 17 30.26 1025 10 16 0.00 0.00
6:53 am 06:53 Clear 35 1.7 32 0 89 89 NW 9 15 30.23 1024 10 16 0.00 0.00
7:30 am 07:30 Mostly Cloudy 36 2.2 32 0 86 86 NW 14 22 30.28 1025 10 16 0.00 0.00
7:53 am 07:53 Cloudy 37 2.8 32 0 82 82 NW 9 15 30.25 1024 10 16 0.00 0.00
8:53 am 08:53 Cloudy 38 3.3 31 -0.6 76 76 NNW 15 24 30.27 1025 10 16 0.00 0.00
9:53 am 09:53 Cloudy 41 5 31 -0.6 67 67 NNW 17 28 30.28 1025 10 16 0.00 0.00
10:53 am 10:53 Cloudy 45 7.2 35 1.7 68 68 N 14 22 30.28 1026 10 16 0.00 0.00
11:13 am 11:13 Mostly Sunny 45 7 36 2 71 71 N 9 15 30.29 1026 10 16 0.00 0.00
11:53 am 11:53 Sunny 47 8.3 35 1.7 63 63 NW 10 17 30.28 1025 10 16 0.00 0.00
12:53 pm 12:53 Sunny 51 10.6 35 1.7 54 54 NNW 10 17 30.27 1025 10 16 0.00 0.00
1:53 pm 13:53 Sunny 53 11.7 35 1.7 51 51 NNW 8 13 30.24 1024 10 16 0.00 0.00
2:53 pm 14:53 Sunny 56 13.3 34 1.1 44 44 NW 6 9 30.22 1023 10 16 0.00 0.00
3:53 pm 15:53 Sunny 57 13.9 34 1.1 42 42 NW 6 9 30.20 1023 10 16 0.00 0.00
4:53 pm 16:53 Sunny 57 13.9 32 0 39 39 NW 7 11 30.19 1022 10 16 0.00 0.00
5:53 pm 17:53 Sunny 55 12.8 35 1.7 47 47 N 3 6 30.19 1023 10 16 0.00 0.00
6:34 pm 18:34 Hazy 52 11 36 2 54 54 Calm 30.17 1022 2 3 0.00 0.00
6:45 pm 18:45 Hazy 52 11 34 1 50 50 Calm 30.18 1022 3 5 0.00 0.00
6:53 pm 18:53 Hazy 51 10.6 34 1.1 52 52 Calm 30.21 1023 5 8 0.00 0.00
7:53 pm 19:53 Hazy 47 8.3 35 1.7 63 63 undefined N/A 30.21 1023 2 3 0.00 0.00
8:06 pm 20:06 Hazy 47 8.3 35 1.7 63 63 Calm 30.20 1023 3 5 0.00 0.00
8:53 pm 20:53 Hazy 44 6.7 34 1.1 68 68 NE 3 6 30.21 1023 3 5 0.00 0.00
9:53 pm 21:53 Hazy 43 6.1 35 1.7 74 74 ESE 3 6 30.20 1023 6 10 0.00 0.00
10:53 pm 22:53 Clear 41 5 34 1.1 76 76 Calm 30.20 1023 10 16 0.00 0.00
11:53 pm 23:53 Clear 40 4.4 35 1.7 83 83 S 3 6 30.19 1022 10 16 0.00 0.00

Powered by AerisWeather